Showing default

KUIPER-00413, 68928

Orbit data source: Space-Track

KUIPER-00413, 68928 is a payload satellite owned by Kuiper Systems (US) in LEO that was launched on Thu, 30 Apr 2026 UTC via an ARIANE 64 launch vehicle from the French Guiana (FRGUI). Payload-class satellites include a variety of spacecraft equipped with specific instruments for various scientific and technological missions. These include communications satellites like Starlink; space stations such as the ISS; scientific satellites like the Hubble; Earth observation satellites from companies like Planet Labs, Umbra, and HawkEye 360; GPS; miniature CubeSats for education and research; and military/defense satellites.

Loading next visibility...
Identifier
68928, 2026-098K
Orbit
LEO
Country
Flag of USUS
Related business
Manufacturer
Kuiper Systems
Mission
Operational spacecraft
Bus & Motor
KUIPER, Unknown motor
Mass
~490 kg wet, ~490 kg dry
Launch date (UTC)
2026-04-30 (2 months ago)
Launch vehicle
ARIANE 64
Launch site
French Guiana (FRGUI)
Object type
Payload
Rocket body
Debris
Shape & HBR
Unknown shape, 3.4 m
Radar Cross Section
Large (>1 m²)

Expand to show TLE details & history
Last TLE update: 11 hours ago

TLE from 11 hours ago
0 KUIPER-00413
1 68928U 26098K   26171.39303836 -.00266273  00000-0 -99718-2 0  9994
2 68928  51.8774  54.1776 0019519 148.7794 211.4352 15.27690758  7816
Epoch: 2026-06-20T09:25Z
TLE epoch observation values (Epoch: 2026-06-20T09:25:58.514Z)
Latitude
-0.00003°
Longitude
4.07546°
Altitude
494.911 km
Speed
7.612 km/s
True Right ascension
03h 36m 42s
True Declination
0° 00' 00"
Sunlit
Object was in daylight at epoch
Visualization orbit readout
Latitude
Unknown
Longitude
Unknown
Altitude
Unknown
Speed
Unknown
Apparent Right ascension
Unknown
Apparent Declination
Unknown
Sunlit
N/A
Visualization observer readout
Local Sidereal Time
07:20:18
Azimuth
Unknown
Elevation
Unknown
Doppler factor
Unknown
Orbital elements
Apogee altitude
496.574 km
Perigee altitude
469.789 km
Semi-major axis
6,861.319 km
Eccentricity
0.00195
Inclination
51.8774°
RAAN
54.1776°
Arg. of periapsis
148.7794°
True anomaly
211.31879°
Mean anomaly
211.4352°
Eccentric anomaly
211.37697°
Mean motion
3.81884 °/min
Orbital period
94.27 mins
BSTAR
-0.0099718
Loading maneuver chart data...
Computing Atmospheric mass density...
Loading historical data...
Loading historical data...
Loading historical data...
Loading historical data...
Loading historical data...
Loading historical data...
Loading historical data...

Documentation

Showing up to 5 results
|